UCG7476 MPTO-MROC

Flight info

Callsign UCG7476
Flight time 1h 4m
Altitude 34000
Route PUDOS DCT ISEBA CUARE4I
Aircraft B722/M-SDFGHRWY/C

Departure

Time 2026-05-06 20:50
Airport Tocumen International Airport (MPTO)

Arrival

Time 2026-05-06 21:55
Airport Juan Santamaría International Airport (MROC)
Time Latitude Longitude Altitude Speed Heading
2026-05-06 20:25 9.08675 -79.37493 34 ft 0 kts 121°
2026-05-06 20:37 9.08683 -79.37505 34 ft 4 kts 120°
2026-05-06 20:37 9.08697 -79.37528 34 ft 4 kts 133°
2026-05-06 20:38 9.08718 -79.37541 34 ft 4 kts 166°
2026-05-06 20:38 9.08741 -79.37538 34 ft 3 kts 207°
2026-05-06 20:38 9.08749 -79.37534 34 ft 0 kts 210°
2026-05-06 20:43 9.08737 -79.37541 34 ft 4 kts 210°
2026-05-06 20:44 9.08696 -79.37565 34 ft 9 kts 210°
2026-05-06 20:44 9.08626 -79.37607 34 ft 14 kts 211°
2026-05-06 20:44 9.08531 -79.37665 34 ft 18 kts 213°
2026-05-06 20:44 9.08429 -79.37758 35 ft 22 kts 226°
2026-05-06 20:45 9.08317 -79.37874 36 ft 25 kts 226°
2026-05-06 20:45 9.08195 -79.38001 37 ft 25 kts 221°
2026-05-06 20:45 9.08147 -79.38036 37 ft 25 kts 211°
2026-05-06 20:46 9.07701 -79.38303 38 ft 24 kts 210°
2026-05-06 20:46 9.07556 -79.38393 38 ft 25 kts 211°
2026-05-06 20:46 9.07407 -79.38486 38 ft 26 kts 212°
2026-05-06 20:47 9.07278 -79.38576 38 ft 12 kts 250°
2026-05-06 20:47 9.07270 -79.38641 43 ft 0 kts 278°
2026-05-06 20:49 9.07270 -79.38644 44 ft 2 kts 279°
2026-05-06 20:49 9.07279 -79.38678 48 ft 8 kts 297°
2026-05-06 20:49 9.07360 -79.38691 50 ft 20 kts 29°
2026-05-06 20:49 9.07644 -79.38519 52 ft 80 kts 31°
2026-05-06 20:50 9.08306 -79.38112 49 ft 140 kts 31°
2026-05-06 20:50 9.09248 -79.37544 197 ft 173 kts 31°
2026-05-06 20:50 9.10268 -79.36936 1043 ft 153 kts 30°
2026-05-06 20:50 9.11237 -79.36416 1777 ft 166 kts 25°
2026-05-06 20:51 9.12471 -79.35831 1993 ft 202 kts 24°
2026-05-06 20:51 9.13514 -79.35359 3779 ft 138 kts 25°
2026-05-06 20:51 9.14441 -79.34931 4094 ft 169 kts 25°
2026-05-06 20:51 9.15642 -79.34376 4174 ft 210 kts 25°
2026-05-06 20:52 9.17103 -79.33701 4328 ft 252 kts 25°
2026-05-06 20:52 9.18793 -79.32922 4466 ft 269 kts 24°
2026-05-06 20:52 9.20500 -79.32138 4562 ft 268 kts 25°
2026-05-06 20:52 9.22203 -79.31360 4629 ft 270 kts 25°
2026-05-06 20:53 9.23907 -79.30589 4666 ft 269 kts 24°
2026-05-06 20:53 9.25657 -79.29944 4699 ft 269 kts
2026-05-06 20:53 9.27481 -79.30219 4896 ft 268 kts 330°
2026-05-06 20:53 9.28782 -79.31602 5729 ft 279 kts 295°
2026-05-06 20:54 9.29083 -79.33527 6738 ft 284 kts 262°
2026-05-06 20:54 9.28466 -79.35451 7554 ft 291 kts 244°
2026-05-06 20:54 9.27527 -79.37288 8453 ft 295 kts 241°
2026-05-06 20:54 9.26569 -79.39139 9338 ft 300 kts 241°
2026-05-06 20:55 9.25583 -79.41034 10125 ft 307 kts 240°
2026-05-06 20:55 9.24591 -79.42929 10871 ft 312 kts 240°
2026-05-06 20:55 9.23561 -79.44886 11653 ft 317 kts 240°
2026-05-06 20:55 9.22495 -79.46896 12404 ft 322 kts 240°
2026-05-06 20:56 9.21423 -79.48907 13142 ft 327 kts 239°
2026-05-06 20:56 9.20329 -79.50946 13873 ft 332 kts 239°
2026-05-06 20:56 9.19216 -79.53012 14528 ft 336 kts 239°
2026-05-06 20:56 9.18102 -79.55069 15194 ft 339 kts 239°
2026-05-06 20:57 9.16943 -79.57201 15856 ft 343 kts 239°
2026-05-06 20:57 9.15797 -79.59297 16512 ft 346 kts 239°
2026-05-06 20:57 9.14620 -79.61440 17167 ft 351 kts 239°
2026-05-06 20:57 9.13424 -79.63606 17818 ft 354 kts 239°
2026-05-06 20:58 9.12212 -79.65792 18415 ft 358 kts 239°
2026-05-06 20:58 9.10984 -79.67997 18991 ft 361 kts 239°
2026-05-06 20:58 9.09740 -79.70223 19545 ft 365 kts 239°
2026-05-06 20:58 9.08485 -79.72462 20091 ft 367 kts 239°
2026-05-06 20:59 9.07312 -79.74771 20603 ft 371 kts 249°
2026-05-06 20:59 9.06807 -79.77325 21104 ft 373 kts 269°
2026-05-06 20:59 9.06953 -79.79949 21613 ft 375 kts 278°
2026-05-06 20:59 9.07283 -79.82575 22150 ft 377 kts 278°
2026-05-06 21:00 9.07465 -79.85149 22653 ft 381 kts 272°
2026-05-06 21:00 9.07408 -79.87911 23160 ft 384 kts 269°
2026-05-06 21:00 9.07328 -79.90623 23637 ft 386 kts 271°
2026-05-06 21:00 9.07382 -79.93339 24087 ft 387 kts 274°
2026-05-06 21:01 9.07473 -79.96058 24538 ft 388 kts 272°
2026-05-06 21:01 9.07496 -79.98798 24994 ft 389 kts 271°
2026-05-06 21:01 9.07489 -80.01538 25454 ft 391 kts 271°
2026-05-06 21:01 9.07513 -80.04290 25877 ft 392 kts 272°
2026-05-06 21:02 9.07559 -80.07053 26303 ft 393 kts 272°
2026-05-06 21:02 9.07591 -80.09825 26716 ft 395 kts 272°
2026-05-06 21:02 9.07608 -80.12603 27125 ft 396 kts 272°
2026-05-06 21:02 9.07631 -80.15393 27537 ft 397 kts 272°
2026-05-06 21:03 9.07663 -80.18191 27923 ft 399 kts 272°
2026-05-06 21:03 9.07693 -80.21002 28307 ft 400 kts 272°
2026-05-06 21:03 9.07717 -80.23820 28681 ft 402 kts 272°
2026-05-06 21:03 9.07741 -80.26648 29057 ft 403 kts 272°
2026-05-06 21:04 9.07769 -80.29486 29439 ft 404 kts 272°
2026-05-06 21:04 9.07797 -80.32333 29793 ft 406 kts 272°
2026-05-06 21:04 9.07823 -80.35193 30116 ft 407 kts 272°
2026-05-06 21:04 9.07847 -80.38062 30434 ft 408 kts 272°
2026-05-06 21:05 9.07873 -80.40936 30730 ft 409 kts 272°
2026-05-06 21:05 9.07900 -80.43815 31020 ft 410 kts 272°
2026-05-06 21:05 9.07924 -80.46702 31310 ft 411 kts 272°
2026-05-06 21:05 9.07949 -80.49604 31595 ft 413 kts 272°
2026-05-06 21:06 9.07975 -80.52472 31858 ft 414 kts 272°
2026-05-06 21:06 9.08001 -80.55383 32133 ft 415 kts 271°
2026-05-06 21:06 9.08025 -80.58309 32396 ft 416 kts 271°
2026-05-06 21:06 9.08049 -80.61241 32649 ft 418 kts 271°
2026-05-06 21:07 9.08074 -80.64189 32901 ft 419 kts 271°
2026-05-06 21:07 9.08099 -80.67139 33155 ft 420 kts 271°
2026-05-06 21:07 9.08123 -80.70102 33384 ft 422 kts 271°
2026-05-06 21:07 9.08147 -80.73076 33626 ft 423 kts 271°
2026-05-06 21:08 9.08171 -80.76055 33861 ft 424 kts 271°
2026-05-06 21:08 9.08219 -80.82109 33895 ft 437 kts 271°
2026-05-06 21:09 9.08267 -80.88362 33903 ft 451 kts 271°
2026-05-06 21:09 9.08316 -80.94802 33905 ft 464 kts 271°
2026-05-06 21:10 9.08364 -81.01408 33901 ft 474 kts 271°
2026-05-06 21:10 9.09080 -81.07970 33900 ft 474 kts 283°
2026-05-06 21:11 9.10861 -81.14367 33898 ft 474 kts 287°
2026-05-06 21:11 9.12441 -81.20837 33902 ft 474 kts 283°
2026-05-06 21:12 9.14092 -81.27287 33898 ft 474 kts 286°
2026-05-06 21:12 9.15729 -81.33741 33900 ft 474 kts 284°
2026-05-06 21:13 9.17353 -81.40202 33902 ft 474 kts 285°
2026-05-06 21:13 9.18997 -81.46659 33901 ft 474 kts 284°
2026-05-06 21:14 9.20618 -81.53121 33904 ft 473 kts 285°
2026-05-06 21:14 9.22253 -81.59566 33900 ft 473 kts 285°
2026-05-06 21:15 9.23876 -81.66029 33903 ft 474 kts 285°
2026-05-06 21:15 9.25509 -81.72491 33906 ft 474 kts 285°
2026-05-06 21:16 9.27122 -81.78912 33907 ft 474 kts 285°
2026-05-06 21:16 9.28752 -81.85380 33907 ft 474 kts 285°
2026-05-06 21:17 9.30378 -81.91857 33907 ft 475 kts 285°
2026-05-06 21:17 9.32004 -81.98328 33905 ft 475 kts 284°
2026-05-06 21:18 9.33629 -82.04805 33908 ft 475 kts 284°
2026-05-06 21:18 9.35257 -82.11295 33907 ft 476 kts 284°
2026-05-06 21:19 9.36852 -82.17665 33908 ft 476 kts 284°
2026-05-06 21:19 9.38204 -82.23064 33910 ft 476 kts 284°
2026-05-06 21:20 9.39829 -82.29559 33914 ft 476 kts 284°
2026-05-06 21:20 9.41453 -82.36057 33915 ft 476 kts 284°
2026-05-06 21:21 9.43074 -82.42551 33921 ft 476 kts 284°
2026-05-06 21:21 9.44695 -82.49046 33924 ft 476 kts 284°
2026-05-06 21:22 9.46315 -82.55542 33929 ft 476 kts 284°
2026-05-06 21:22 9.47923 -82.61997 33934 ft 476 kts 284°
2026-05-06 21:23 9.49540 -82.68495 33934 ft 476 kts 284°
2026-05-06 21:23 9.51161 -82.75009 33934 ft 477 kts 284°
2026-05-06 21:24 9.52778 -82.81523 33942 ft 477 kts 284°
2026-05-06 21:24 9.54336 -82.87784 33947 ft 477 kts 284°
2026-05-06 21:25 9.56005 -82.94294 33954 ft 478 kts 285°
2026-05-06 21:25 9.57576 -83.00433 33955 ft 478 kts 284°
2026-05-06 21:26 9.58933 -83.05773 33966 ft 478 kts 285°
2026-05-06 21:26 9.60614 -83.12291 33970 ft 478 kts 286°
2026-05-06 21:27 9.62758 -83.18615 33976 ft 478 kts 292°
2026-05-06 21:27 9.65119 -83.24916 33984 ft 478 kts 289°
2026-05-06 21:27 9.66153 -83.28082 34017 ft 463 kts 289°
2026-05-06 21:28 9.67214 -83.31123 33182 ft 457 kts 291°
2026-05-06 21:28 9.68347 -83.34143 32208 ft 457 kts 291°
2026-05-06 21:28 9.69441 -83.37150 31470 ft 452 kts 290°
2026-05-06 21:28 9.70469 -83.40136 30692 ft 448 kts 290°
2026-05-06 21:29 9.71498 -83.43107 29901 ft 444 kts 291°
2026-05-06 21:29 9.72552 -83.46038 29033 ft 441 kts 291°
2026-05-06 21:29 9.73600 -83.48944 28223 ft 436 kts 291°
2026-05-06 21:29 9.74541 -83.51850 27416 ft 434 kts 284°
2026-05-06 21:30 9.74927 -83.54873 26639 ft 432 kts 272°
2026-05-06 21:30 9.74892 -83.57908 25892 ft 429 kts 267°
2026-05-06 21:30 9.74616 -83.60906 25183 ft 426 kts 264°
2026-05-06 21:30 9.74291 -83.63849 24503 ft 423 kts 265°
2026-05-06 21:31 9.74091 -83.66771 23837 ft 420 kts 268°
2026-05-06 21:31 9.73954 -83.69723 23075 ft 418 kts 268°
2026-05-06 21:31 9.73761 -83.72580 22428 ft 413 kts 266°
2026-05-06 21:31 9.73514 -83.75459 21736 ft 409 kts 265°
2026-05-06 21:32 9.73295 -83.78319 21042 ft 406 kts 266°
2026-05-06 21:32 9.72921 -83.83967 19764 ft 398 kts 266°
2026-05-06 21:32 9.72708 -83.86753 19143 ft 395 kts 265°
2026-05-06 21:33 9.72484 -83.89512 18566 ft 391 kts 265°
2026-05-06 21:33 9.72272 -83.92230 17903 ft 388 kts 265°
2026-05-06 21:33 9.72069 -83.94948 17243 ft 384 kts 265°
2026-05-06 21:33 9.71866 -83.97630 16650 ft 379 kts 265°
2026-05-06 21:34 9.71658 -84.00279 16010 ft 376 kts 265°
2026-05-06 21:34 9.71453 -84.02909 15408 ft 373 kts 265°
2026-05-06 21:34 9.71252 -84.05517 14831 ft 369 kts 265°
2026-05-06 21:34 9.71053 -84.08095 14272 ft 366 kts 265°
2026-05-06 21:35 9.70854 -84.10651 13741 ft 362 kts 265°
2026-05-06 21:35 9.70655 -84.13194 13165 ft 360 kts 265°
2026-05-06 21:35 9.70462 -84.15707 12686 ft 354 kts 265°
2026-05-06 21:35 9.70271 -84.18180 12110 ft 351 kts 265°
2026-05-06 21:36 9.70077 -84.20628 11499 ft 347 kts 265°
2026-05-06 21:36 9.69889 -84.23042 11111 ft 341 kts 266°
2026-05-06 21:36 9.69702 -84.25435 10517 ft 339 kts 265°
2026-05-06 21:36 9.69517 -84.27790 10071 ft 332 kts 265°
2026-05-06 21:37 9.69324 -84.30115 9511 ft 330 kts 265°
2026-05-06 21:37 9.69100 -84.32421 8944 ft 327 kts 264°
2026-05-06 21:37 9.68867 -84.34696 8458 ft 323 kts 264°
2026-05-06 21:37 9.68648 -84.36948 7956 ft 320 kts 264°
2026-05-06 21:38 9.68437 -84.39183 7447 ft 317 kts 264°
2026-05-06 21:38 9.68225 -84.41396 6970 ft 313 kts 264°
2026-05-06 21:38 9.68013 -84.43577 6490 ft 310 kts 264°
2026-05-06 21:38 9.67805 -84.45714 6022 ft 307 kts 264°
2026-05-06 21:39 9.67605 -84.47803 5977 ft 288 kts 264°
2026-05-06 21:39 9.67416 -84.49764 5965 ft 271 kts 264°
2026-05-06 21:39 9.67237 -84.51609 5958 ft 255 kts 264°
2026-05-06 21:39 9.67068 -84.53347 5941 ft 241 kts 264°
2026-05-06 21:40 9.66903 -84.55063 5347 ft 254 kts 264°
2026-05-06 21:40 9.66734 -84.56803 5265 ft 242 kts 264°
2026-05-06 21:40 9.66573 -84.58455 5253 ft 229 kts 264°
2026-05-06 21:40 9.66422 -84.60010 5247 ft 214 kts 264°
2026-05-06 21:41 9.66280 -84.61469 5251 ft 201 kts 264°
2026-05-06 21:41 9.66192 -84.62827 5202 ft 188 kts 279°
2026-05-06 21:41 9.66719 -84.64008 5048 ft 182 kts 308°
2026-05-06 21:41 9.67626 -84.64859 5027 ft 178 kts 333°
2026-05-06 21:42 9.68791 -84.65248 4986 ft 177 kts 356°
2026-05-06 21:42 9.70007 -84.65125 4979 ft 176 kts 20°
2026-05-06 21:42 9.71046 -84.64525 5128 ft 172 kts 43°
2026-05-06 21:42 9.71776 -84.63563 5290 ft 174 kts 64°
2026-05-06 21:43 9.72335 -84.62341 5320 ft 212 kts 66°
2026-05-06 21:43 9.73017 -84.60845 5335 ft 244 kts 65°
2026-05-06 21:43 9.73737 -84.59315 5321 ft 238 kts 65°
2026-05-06 21:43 9.74446 -84.57802 5251 ft 239 kts 65°
2026-05-06 21:44 9.75175 -84.56235 5844 ft 241 kts 65°
2026-05-06 21:44 9.75866 -84.54750 7131 ft 231 kts 65°
2026-05-06 21:44 9.76565 -84.53247 7959 ft 240 kts 65°
2026-05-06 21:44 9.77282 -84.51708 8894 ft 241 kts 65°
2026-05-06 21:45 9.77999 -84.50169 9850 ft 243 kts 66°
2026-05-06 21:45 9.78768 -84.48514 10041 ft 279 kts 66°
2026-05-06 21:45 9.79644 -84.46639 10051 ft 296 kts 65°
2026-05-06 21:45 9.80518 -84.44765 10067 ft 294 kts 65°
2026-05-06 21:46 9.81387 -84.42892 10077 ft 294 kts 66°
2026-05-06 21:46 9.82256 -84.41022 10079 ft 293 kts 65°
2026-05-06 21:46 9.83126 -84.39153 10085 ft 292 kts 65°
2026-05-06 21:46 9.83993 -84.37289 10102 ft 293 kts 66°
2026-05-06 21:47 9.84866 -84.35411 10102 ft 295 kts 65°
2026-05-06 21:47 9.85726 -84.33556 10074 ft 285 kts 65°
2026-05-06 21:47 9.86561 -84.31766 10016 ft 276 kts 66°
2026-05-06 21:47 9.87361 -84.30049 10002 ft 263 kts 66°
2026-05-06 21:48 9.88114 -84.28425 10011 ft 247 kts 66°
2026-05-06 21:48 9.88835 -84.26870 10020 ft 239 kts 66°
2026-05-06 21:48 9.89540 -84.25347 10024 ft 240 kts 66°
2026-05-06 21:48 9.90252 -84.23813 10023 ft 241 kts 66°
2026-05-06 21:49 9.90896 -84.22237 9868 ft 245 kts 70°
2026-05-06 21:49 9.91491 -84.20540 9039 ft 262 kts 71°
2026-05-06 21:49 9.92098 -84.18807 8378 ft 262 kts 71°
2026-05-06 21:49 9.92720 -84.17124 7700 ft 247 kts 70°
2026-05-06 21:50 9.93307 -84.15548 7022 ft 233 kts 70°
2026-05-06 21:50 9.93860 -84.14040 6358 ft 224 kts 69°
2026-05-06 21:50 9.94394 -84.12582 5682 ft 218 kts 68°
2026-05-06 21:50 9.95164 -84.11286 5038 ft 213 kts 43°
2026-05-06 21:51 9.96273 -84.10471 4978 ft 182 kts 26°
2026-05-06 21:51 9.97422 -84.10116 4960 ft 172 kts
2026-05-06 21:51 9.98611 -84.10126 4978 ft 170 kts 351°
2026-05-06 21:51 9.99732 -84.10514 4962 ft 162 kts 333°
2026-05-06 21:52 10.00482 -84.11056 4954 ft 153 kts 320°
2026-05-06 21:52 10.00711 -84.11280 4976 ft 156 kts 315°
2026-05-06 21:52 10.01343 -84.12193 4987 ft 158 kts 297°
2026-05-06 21:52 10.01682 -84.13251 4992 ft 160 kts 281°
2026-05-06 21:53 10.01708 -84.14376 4997 ft 160 kts 264°
2026-05-06 21:53 10.01424 -84.15461 5041 ft 161 kts 250°
2026-05-06 21:53 10.00929 -84.16476 4682 ft 162 kts 245°
2026-05-06 21:53 10.00543 -84.17535 4292 ft 157 kts 251°
2026-05-06 21:54 10.00184 -84.18570 3991 ft 158 kts 250°
2026-05-06 21:54 9.99839 -84.19641 3179 ft 158 kts 255°
2026-05-06 21:54 9.99508 -84.20567 3025 ft 120 kts 250°
2026-05-06 21:54 9.99301 -84.21120 2997 ft 51 kts 249°
2026-05-06 21:55 9.99222 -84.21334 2986 ft 20 kts 250°
2026-05-06 21:55 9.99165 -84.21487 2981 ft 26 kts 249°
2026-05-06 21:55 9.99098 -84.21671 2974 ft 21 kts 259°
2026-05-06 21:55 9.99130 -84.21706 2973 ft 8 kts 340°
2026-05-06 21:56 9.99165 -84.21705 2974 ft 5 kts 27°
2026-05-06 21:56 9.99199 -84.21655 2976 ft 12 kts 68°
2026-05-06 21:56 9.99238 -84.21551 2980 ft 19 kts 69°
2026-05-06 21:56 9.99295 -84.21398 2986 ft 27 kts 69°
2026-05-06 21:57 9.99321 -84.21329 2988 ft 0 kts 69°
2026-05-06 21:57 9.99335 -84.21293 2990 ft 11 kts 69°
2026-05-06 21:57 9.99348 -84.21257 2992 ft 0 kts 69°
2026-05-06 21:58 9.99349 -84.21256 2992 ft 1 kts 69°
2026-05-06 21:59 9.99354 -84.21241 2992 ft 4 kts 69°
2026-05-06 21:59 9.99379 -84.21205 2994 ft 8 kts 34°
2026-05-06 21:59 9.99447 -84.21199 2996 ft 11 kts 350°
2026-05-06 21:59 9.99509 -84.21178 2998 ft 6 kts 65°
2026-05-06 22:00 9.99494 -84.21149 2998 ft 5 kts 154°
2026-05-06 22:00 9.99483 -84.21144 2998 ft 0 kts 155°
2026-05-06 22:00 9.99476 -84.21140 2998 ft 0 kts 156°
2026-05-06 22:00 9.99470 -84.21138 2998 ft 2 kts 158°
2026-05-06 22:01 9.99465 -84.21136 2998 ft 0 kts 159°